Overview Statistics Trail Chart Weather Telemetry Raw packets
 

This is the latest recevied weather packets stored in our database for station/object KQ4KX. If no packets are shown the sender has not sent any weather packets the latest 10 day(s).

<< 97 98 99 100 101 102 103 >>
Time Temp. Humidity Pressure Rain* Wind** Luminosity Snow
1787859036 23.33° C 96% 1016.2 hPa 12.19 mm - - -
1787858948 23.33° C 96% 1016.2 hPa 12.19 mm - - -
1787858724 23.33° C 96% 1016.3 hPa 11.94 mm - - -
1787858619 23.33° C 96% 1016.3 hPa 11.94 mm - - -
1787858418 23.33° C 96% 1016.7 hPa 11.68 mm - - -
1787858318 23.33° C 96% 1016.7 hPa 11.68 mm - - -
1787858191 23.33° C 96% 1016.9 hPa 11.43 mm - - -
1787858018 23.33° C 96% 1016.9 hPa 11.43 mm - - -
1787857869 23.33° C 94% 1016.8 hPa 10.41 mm - - -
1787857718 23.33° C 94% 1016.8 hPa 10.41 mm - - -
1787857216 24.44° C 91% 1016.7 hPa 5.33 mm - - -
1787857117 24.44° C 91% 1016.7 hPa 5.33 mm - - -
1787856787 25.56° C 93% 1016.9 hPa 2.03 mm - - -
1787856560 26.11° C 89% 1017 hPa 0.25 mm - - -
1787856487 26.11° C 89% 1017 hPa 0.25 mm - - -
1787856157 28.33° C 81% 1016.6 hPa 0 mm - - -
1787855857 30.56° C 73% 1016.3 hPa 0 mm - - -
1787855527 32.22° C 69% 1016.1 hPa 0 mm - - -
1787854897 32.78° C 67% 1016.1 hPa 0 mm - - -
1787854267 33.33° C 66% 1016 hPa 0 mm - - -
1787853967 33.33° C 66% 1016 hPa 0 mm - - -
1787853638 33.33° C 66% 1016.2 hPa 0 mm - - -
1787853473 33.33° C 67% 1016.3 hPa 0 mm - - -
1787853338 33.33° C 67% 1016.3 hPa 0 mm - - -
1787853038 32.78° C 69% 1016.5 hPa 0 mm - - -

* Rain latest hour (hover to see other rain measurements)
** Current wind speed in m/s (hover to see current wind gust speed)